Regional Weather Roundup
Issued by NWS

Home | Current Version | Previous Version | Graphics & Text | Print | Product List | Glossary On
Versions: 1 2 3 4 5 6 7 8 9 10 11 12 13 14 15 16 17 18 19 20 21 22 23 24 25 26 27 28 29 30 31 32 33 34 35 36 37 38 39 40 41 42 43 44 45 46 47 48 49 50
065
ASUS45 KBOU 230207
RWRCO

WEATHER ROUNDUP FOR COLORADO
NATIONAL WEATHER SERVICE DENVER/BOULDER CO
800 PM MDT TUE AUG 22 2017

NOTE: "FAIR" INDICATES FEW OR NO CLOUDS BELOW 12000 FEET WITH NO
SIGNIFICANT WEATHER AND/OR OBSTRUCTIONS TO VISIBILITY.

COZ001>005-013-030-031-230300-
...NORTHWEST COLORADO...

CITY           SKY/WX    TMP DP  RH WIND       PRES   REMARKS
CRAIG          FAIR      70  41  34 W7        30.26S
HAYDEN         FAIR      72  38  29 W3        30.30S
MEEKER         FAIR      69  46  43 S3        30.30F
RABBIT EARS PA MOCLDY    54  34  47 W6        30.59S
STEAMBOAT SPGS FAIR      70  41  35 CALM      30.30S
WALDEN         FAIR      64  34  32 W6        30.40R
$$

COZ006>008-011-230300-
...WEST CENTRAL VALLEYS...

CITY           SKY/WX    TMP DP  RH WIND       PRES   REMARKS
GRAND JUNCTION MOCLDY    75  49  39 SE9G21    30.21R
MONTROSE       FAIR      73  46  38 SE5       30.30R
EAGLE          FAIR      71  43  36 W9        30.33R
RIFLE          FAIR      74  45  35 SW10G23   30.27R
DELTA          MOCLDY    79  44  29 E9        30.25R
NUCLA          CLOUDY    72  41  33 NE9       30.32R
$$

COZ017>023-064>068-230300-
...SOUTHWEST COLORADO...

CITY           SKY/WX    TMP DP  RH WIND       PRES   REMARKS
DURANGO        FAIR      75  43  31 NW12      30.30R
CORTEZ         FAIR      76  50  40 SW3       30.23S
PAGOSA SPRINGS MOCLDY    64  43  46 NW8       30.41R
TELLURIDE      FAIR      56  47  71 CALM      30.53S
WOLF CREEK PAS CLOUDY    39  39 100 N9        30.75F
$$

COZ009-010-012-014-032>034-037-058>063-230300-
...CENTRAL COLORADO...

CITY           SKY/WX    TMP DP  RH WIND       PRES   REMARKS
ASPEN          MOCLDY    62  44  51 SE17G24   30.43F
BUENA VISTA    FAIR      64  39  40 SW13      30.47R
COPPER MTN     MOCLDY    52  36  54 S16       30.72F
BERTHOUD PASS  CLOUDY    41  36  81 NW8       30.75R
COTTONWOOD PAS CLOUDY    59  37  44 SW15G24   30.60R
GUNNISON       FAIR      60  46  59 N14G20    30.45S
KREMMLING      FAIR      73  36  25 SW5       30.36S
LEADVILLE      CLOUDY    53  40  61 CALM      30.57F
MONARCH PASS   MOCLDY    45  39  81 SW12      30.83S
SALIDA         CLOUDY    60  51  73 SW8       30.52R
SUNLIGHT       FAIR      50  34  53 CALM      30.67S
WILKERSON PASS TSTM      48  45  87 CALM      30.72R
$$

COZ069>075-230300-
...SAN LUIS VALLEY/SANGRE DE CRISTO MOUNTAINS...

CITY           SKY/WX    TMP DP  RH WIND       PRES   REMARKS
ALAMOSA        LGT RAIN  59  52  77 S8        30.44R
DEL NORTE      LGT RAIN  54  49  82 CALM      30.50S
LA VETA PASS   NOT AVBL
SAGUACHE         N/A    N/A N/A N/A MISG        N/A
$$

COZ035-036-038>040-230300-
...NORTHERN COLORADO FRONT RANGE...

CITY           SKY/WX    TMP DP  RH WIND       PRES   REMARKS
DENVER INTL AP MOCLDY    72  50  45 S10       30.21S
DMNS CITY PARK   N/A     74  43  33 SE8       30.21S
AURORA         MOCLDY    73  51  46 SW13      30.24S
FRONT RANGE AP FAIR      72  54  53 S8        30.24S
ERIE MUNI ARPT FAIR      74  58  57 NW3       30.24S
BOULDER MUN AP MOCLDY    75  55  50 NW6       30.21R
CENTENNIAL     MOCLDY    72  52  49 SW17      30.25R
BROOMFIELD     MOCLDY    75  46  35 SW12      30.23F
FORT COLLINS   FAIR      75  60  59 NE5       30.18F
LONGMONT       LGT RAIN  76  58  54 W5        30.20F
$$

COZ041-046-047-076>085-087-088-230300-
...PIKES PEAK/PALMER DIVIDE AND SOUTHERN FOOTHILLS...

CITY           SKY/WX    TMP DP  RH WIND       PRES   REMARKS
COLO. SPRINGS  FAIR      67  55  65 SE8       30.35S
A. F. ACADEMY  FAIR      66  54  64 S9        30.36S
SCHRIEVER AFB  FAIR      63  54  73 S6        30.36S
CHEYENNE MTN   FAIR      64  53  68 S12       30.33F
ELLICOTT       FAIR     N/A N/A N/A S7        30.34S
FALCON         FAIR      63  53  70 S14G23    30.39F
FORT CARSON    FAIR      65  55  71 S7        30.32S
LIMON          FAIR      65  52  62 SE9       30.28S
MONUMENT HILL  FAIR      63  52  67 S15       30.38S
CANON CITY     CLEAR     72  61  68 NE8       30.28F
WALSENBURG     NOT AVBL
TRINIDAD       FAIR      65  52  62 SW12      30.34R
$$

COZ042>045-048>051-090-091-230300-
...NORTHEAST COLORADO...

CITY           SKY/WX    TMP DP  RH WIND       PRES   REMARKS
GREELEY ARPT   NOT AVBL
AKRON          FAIR      71  50  47 S14       30.22R
BURLINGTON     FAIR      67  57  70 SE8       30.23S
WRAY           FAIR      70  52  52 SE7       30.20S
YUMA           FAIR      66  45  45 SE8       30.20S
STERLING       FAIR      72  54  53 SE10      30.16S
HOLYOKE        FAIR      64  55  72 SE8       30.19F
FORT MORGAN    FAIR      74  52  45 S15       30.18S
$$

COZ086-089-092>099-230300-
...SOUTHEAST COLORADO...

CITY           SKY/WX    TMP DP  RH WIND       PRES   REMARKS
PUEBLO         FAIR      73  51  46 S5        30.25S
LA JUNTA       FAIR      74  58  57 S6        30.22F
LAMAR          FAIR      70  56  61 SE9       30.19S
SPRINGFIELD      N/A     65  60  84 SE6       30.25S
$$




USA.gov is the U.S. government's official web portal to all federal, state and local government web resources and services.